www.pogodaiklimat.ru

Погода и климат >> Архив погоды >> Австралия >> Wyndham Aero


ПОГОДА в Wyndham Aero

  • Прогноз погоды в Wyndham Aero
  • Монитор погоды в Wyndham Aero
  • Климат города

АРХИВ ПОГОДЫ в Wyndham Aero

Время (UTC), дата Ветер
(напр.,м/с)
 
Видим.   Явления Облачность Т
(С)
Тd
(С)
f
(%)
Тe
(С)
Тes
(С)
Комфортность P
(гПа)
Po
(гПа)
Тmin
(С)
Tmax
(С)
R
(мм)
R24
(мм)
S
(см)
05 17.06 В 7 н/о н/о +31.3 +4.2 18 +29 +29 жарко 1013.3 1012.8
04 17.06 В 7 н/о н/о +30.8 +3.8 18 +29 +29 жарко 1014.1 1013.6
06 17.06 В 5 н/о н/о +31.2 +4.9 19 +29 +29 жарко 1012.9 1012.4
07 17.06 ЮВ 6 н/о н/о +31.0 +4.7 19 +29 +29 жарко 1012.9 1012.4
08 17.06 В 5 н/о н/о +30.8 +4.5 19 +29 +29 жарко 1013.3 1012.8
09 17.06 В 3 н/о н/о +27.4 +3.8 22 +26 +26 жарко 1013.9 1013.4
11 17.06 В 3 н/о н/о +21.9 +4.9 33 +22 +22 комфорт 1015.3 1014.8
10 17.06 ЮВ 3 н/о н/о +23.7 +4.6 29 +23 +23 комфорт 1014.6 1014.1
12 17.06 СЗ 2 н/о н/о +19.5 +5.6 40 +21 +21 комфорт 1015.6 1015.1
13 17.06 штиль 0 н/о н/о +18.1 +5.3 43 +18 +18 1015.8 1015.3 +32.5
14 17.06 З 1 н/о н/о +18.0 +5.9 45 +19 +19 1015.7 1015.2
15 17.06 СЗ 2 н/о н/о +18.4 +6.9 47 +19 +19 1015.6 1015.1
17 17.06 В 3 н/о н/о +19.0 +7.1 46 +20 +20 1014.9 1014.4
16 17.06 СЗ 2 н/о н/о +17.8 +7.0 49 +18 +18 1015.3 1014.8
18 17.06 В 3 н/о н/о +18.4 +6.9 47 +19 +19 1014.6 1014.1
19 17.06 В 3 н/о н/о +18.6 +6.8 46 +19 +19 1014.6 1014.1
20 17.06 В 3 н/о н/о +19.9 +7.0 43 +21 +21 комфорт 1014.7 1014.2
21 17.06 В 2 н/о н/о +17.2 +5.5 46 +18 +18 1015.2 1014.7
23 17.06 В 3 н/о н/о +21.6 +8.8 44 +23 +23 комфорт 1016.2 1015.7
22 17.06 В 1 н/о н/о +15.9 +6.1 52 +17 +17 1015.6 1015.1
00 18.06 В 9 н/о н/о +26.6 +6.6 28 +26 +26 жарко 1016.3 1015.8
01 18.06 В 9 н/о н/о +27.8 +6.6 26 +27 +27 жарко 1016.4 1015.9 +15.5
02 18.06 В 10 н/о н/о +28.7 +7.3 26 +28 +28 жарко 1016.0 1015.5
03 18.06 В 8 н/о н/о +28.6 +7.2 26 +28 +28 жарко 1014.8 1014.3
05 18.06 В 7 н/о н/о +30.5 +7.7 24 +29 +29 жарко 1012.8 1012.3
04 18.06 ЮВ 8 н/о н/о +31.2 +7.6 23 +30 +30 жарко 1013.5 1013.0
06 18.06 В 6 н/о н/о +31.9 +7.5 22 +31 +31 жарко 1012.4 1011.9
07 18.06 В 7 н/о н/о +31.0 +8.1 24 +30 +30 жарко 1012.2 1011.7
08 18.06 В 7 н/о н/о +30.1 +7.9 25 +29 +29 жарко 1012.7 1012.2
09 18.06 В 4 н/о н/о +28.0 +8.3 29 +28 +28 жарко 1013.3 1012.8
11 18.06 штиль 0 н/о н/о +21.6 +7.1 39 +22 +22 комфорт 1014.9 1014.4
10 18.06 ЮВ 3 н/о н/о +25.2 +7.8 33 +25 +25 комфорт 1014.1 1013.6
12 18.06 ЮВ 1 н/о н/о +20.3 +7.7 44 +23 +23 комфорт 1015.5 1015.0
13 18.06 В 3 н/о н/о +20.6 +7.9 44 +22 +22 комфорт 1015.6 1015.1 +32.5
14 18.06 В 3 н/о н/о +20.2 +7.9 45 +22 +22 комфорт 1015.7 1015.2
15 18.06 В 4 н/о н/о +21.5 +8.1 42 +23 +23 комфорт 1015.6 1015.1
17 18.06 В 3 н/о н/о +20.1 +8.1 46 +22 +22 комфорт 1015.2 1014.7
16 18.06 В 3 н/о н/о +19.8 +7.9 46 +21 +21 комфорт 1015.5 1015.0
18 18.06 СВ 2 н/о н/о +19.9 +7.9 46 +21 +21 комфорт 1015.0 1014.5
19 18.06 В 2 н/о н/о +17.9 +7.0 49 +18 +18 1014.7 1014.2
20 18.06 ЮВ 2 н/о н/о +16.1 +6.3 52 +17 +17 1014.8 1014.3
21 18.06 В 3 н/о н/о +17.0 +6.2 49 +17 +17 1015.2 1014.7
23 18.06 СВ 1 н/о н/о +22.6 +9.4 43 +24 +24 комфорт 1016.8 1016.3
22 18.06 штиль 0 н/о н/о +17.2 +7.5 53 +17 +17 1015.8 1015.3
00 19.06 ЮВ 3 н/о н/о +25.9 +8.4 33 +26 +26 жарко 1017.0 1016.5
01 19.06 В 8 н/о н/о +27.7 +7.5 28 +27 +27 жарко 1016.7 1016.2 +16.0
02 19.06 В 7 н/о н/о +29.0 +7.6 26 +28 +28 жарко 1016.0 1015.5
03 19.06 В 7 н/о н/о +30.0 +7.8 25 +29 +29 жарко 1015.4 1014.9
05 19.06 В 5 н/о н/о +31.4 +8.4 24 +30 +30 жарко 1013.5 1013.0
04 19.06 СВ 6 н/о н/о +30.2 +8.0 25 +29 +29 жарко 1014.6 1014.1
06 19.06 В 5 н/о н/о +31.5 +7.9 23 +30 +30 жарко 1012.6 1012.1
07 19.06 ЮВ 3 н/о н/о +31.3 +8.3 24 +30 +30 жарко 1012.5 1012.0
08 19.06 ЮВ 4 н/о н/о +30.9 +8.0 24 +30 +30 жарко 1012.8 1012.3
09 19.06 ЮВ 4 н/о н/о +28.3 +8.1 28 +28 +28 жарко 1013.1 1012.6
11 19.06 СВ 3 н/о н/о +24.0 +8.4 37 +25 +25 комфорт 1014.9 1014.4
10 19.06 В 3 н/о н/о +25.2 +7.3 32 +25 +25 комфорт 1014.0 1013.5
12 19.06 штиль 0 н/о н/о +21.1 +7.7 42 +22 +22 комфорт 1015.3 1014.8
13 19.06 штиль 0 н/о н/о +19.3 +6.8 44 +20 +20 1015.5 1015.0 +32.2
14 19.06 В 2 н/о н/о +19.1 +8.4 50 +21 +21 комфорт 1015.4 1014.9
15 19.06 СВ 3 н/о н/о +20.1 +7.8 45 +22 +22 комфорт 1014.9 1014.4
17 19.06 штиль 0 н/о н/о +17.3 +7.9 54 +17 +17 1013.9 1013.4
16 19.06 штиль 0 н/о н/о +17.7 +8.0 53 +18 +18 1014.6 1014.1
18 19.06 В 2 н/о н/о +17.0 +7.4 53 +17 +17 1013.7 1013.2
19 19.06 В 2 н/о н/о +17.0 +6.8 51 +17 +17 1013.6 1013.1
20 19.06 В 3 н/о н/о +20.1 +9.9 52 +22 +22 комфорт 1013.6 1013.1
21 19.06 В 3 н/о н/о +20.4 +9.0 48 +22 +22 комфорт 1014.0 1013.5
23 19.06 В 2 н/о н/о +23.1 +9.8 43 +25 +25 комфорт 1015.2 1014.7
22 19.06 В 3 н/о н/о +19.4 +8.7 50 +20 +20 1014.5 1014.0
00 20.06 В 5 н/о н/о +27.3 +9.2 32 +27 +27 жарко 1015.5 1015.0
01 20.06 В 8 н/о н/о +28.5 +8.2 28 +28 +28 жарко 1015.5 1015.0 +16.8
02 20.06 В 7 н/о н/о +29.5 +8.0 26 +29 +29 жарко 1015.3 1014.8
03 20.06 В 7 н/о н/о +31.3 +8.9 25 +30 +30 жарко 1014.5 1014.0
05 20.06 В 4 н/о н/о +32.3 +8.5 23 +31 +31 жарко 1012.8 1012.3
04 20.06 В 6 н/о н/о +31.7 +8.7 24 +31 +31 жарко 1013.7 1013.2
06 20.06 В 4 н/о н/о +32.2 +9.1 24 +31 +31 жарко 1012.3 1011.8
07 20.06 В 3 н/о н/о +32.0 +8.9 24 +31 +31 жарко 1012.0 1011.5
08 20.06 ЮВ 5 н/о н/о +31.8 +8.7 24 +31 +31 жарко 1012.3 1011.8
09 20.06 В 3 н/о н/о +28.9 +8.0 27 +28 +28 жарко 1012.7 1012.2
11 20.06 СВ 3 н/о н/о +25.0 +9.3 37 +26 +26 жарко 1014.3 1013.8
10 20.06 В 3 н/о н/о +24.7 +8.6 36 +25 +25 комфорт 1013.4 1012.9
12 20.06 СВ 2 н/о н/о +22.0 +7.8 40 +23 +23 комфорт 1015.0 1014.5
13 20.06 З 1 н/о н/о +21.5 +9.4 46 +23 +23 комфорт 1015.1 1014.6 +33.2
14 20.06 С 2 н/о н/о +20.1 +9.7 51 +22 +22 комфорт 1015.0 1014.5
15 20.06 штиль 0 н/о н/о +19.1 +9.0 52 +20 +20 1014.8 1014.3
17 20.06 СЗ 2 н/о н/о +18.6 +9.4 55 +20 +20 1014.5 1014.0
16 20.06 штиль 0 н/о н/о +18.0 +8.8 55 +18 +18 1014.8 1014.3
18 20.06 штиль 0 н/о н/о +18.8 +9.6 55 +19 +19 1014.1 1013.6
19 20.06 штиль 0 н/о н/о +16.7 +7.9 56 +17 +17 1014.1 1013.6
20 20.06 штиль 0 н/о н/о +16.9 +9.3 61 +17 +17 1014.2 1013.7
21 20.06 В 2 н/о н/о +16.3 +7.8 57 +16 +16 1014.6 1014.1
23 20.06 В 3 н/о н/о +24.3 +11.6 45 +26 +26 жарко 1015.8 1015.3
22 20.06 В 3 н/о н/о +18.1 +7.8 51 +18 +18 1015.2 1014.7
00 21.06 В 6 н/о н/о +27.5 +10.7 35 +28 +28 жарко 1016.4 1015.9
01 21.06 В 8 н/о н/о +29.2 +8.8 28 +29 +29 жарко 1016.3 1015.8 +16.4
02 21.06 В 7 н/о н/о +30.7 +9.0 26 +30 +30 жарко 1015.8 1015.3
03 21.06 В 6 н/о н/о +31.8 +9.3 25 +31 +31 жарко 1014.6 1014.1
05 21.06 ЮВ 7 н/о н/о +33.0 +9.7 24 +32 +32 жарко 1012.7 1012.2
04 21.06 В 7 н/о н/о +31.9 +8.8 24 +31 +31 жарко 1013.5 1013.0
06 21.06 В 6 н/о н/о +32.6 +8.8 23 +31 +31 жарко 1012.3 1011.8
07 21.06 ЮВ 6 н/о н/о +32.2 +7.8 22 +31 +31 жарко 1012.3 1011.8
08 21.06 В 6 н/о н/о +31.4 +7.8 23 +30 +30 жарко 1012.4 1011.9
09 21.06 В 3 н/о н/о +28.9 +7.5 26 +28 +28 жарко 1012.9 1012.4
11 21.06 СВ 3 н/о н/о +23.0 +7.9 38 +24 +24 комфорт 1014.5 1014.0
10 21.06 ЮВ 3 н/о н/о +24.7 +6.9 32 +25 +25 комфорт 1013.8 1013.3
12 21.06 В 2 н/о н/о +22.0 +7.0 38 +23 +23 комфорт 1015.2 1014.7
13 21.06 В 3 н/о н/о +22.5 +8.2 40 +24 +24 комфорт 1015.4 1014.9 +33.2
14 21.06 СВ 2 н/о н/о +20.8 +7.1 41 +23 +23 комфорт 1015.6 1015.1
15 21.06 штиль 0 н/о н/о +18.6 +6.8 46 +19 +19 1015.4 1014.9
17 21.06 штиль 0 н/о н/о +17.5 +8.1 54 +18 +18 1015.3 1014.8
16 21.06 штиль 0 н/о н/о +17.6 +7.4 51 +18 +18 1015.4 1014.9
18 21.06 штиль 0 н/о н/о +17.1 +8.3 56 +17 +17 1014.8 1014.3
19 21.06 штиль 0 н/о н/о +16.0 +7.5 57 +16 +16 1014.7 1014.2
20 21.06 штиль 0 н/о н/о +15.4 +7.4 59 +15 +15 1014.9 1014.4
21 21.06 штиль 0 н/о н/о +15.4 +7.9 61 +15 +15 1015.1 1014.6
23 21.06 штиль 0 н/о н/о +21.0 +11.1 53 +23 +23 комфорт 1016.2 1015.7
22 21.06 штиль 0 н/о н/о +14.9 +7.2 60 +15 +15 1015.8 1015.3
00 22.06 ЮВ 2 н/о н/о +26.3 +8.8 33 +27 +27 жарко 1016.5 1016.0
01 22.06 В 6 н/о н/о +29.5 +6.2 23 +28 +28 жарко 1016.3 1015.8 +14.8
02 22.06 В 7 н/о н/о +30.6 +5.1 20 +29 +29 жарко 1015.8 1015.3
03 22.06 В 6 н/о н/о +31.8 +4.6 18 +30 +30 жарко 1015.0 1014.5
05 22.06 В 3 н/о н/о +32.7 +5.3 18 +30 +30 жарко 1013.1 1012.6
04 22.06 В 5 н/о н/о +32.4 +4.2 17 +30 +30 жарко 1014.1 1013.6
06 22.06 В 4 н/о н/о +32.3 +5.0 18 +30 +30 жарко 1012.4 1011.9
07 22.06 В 3 н/о н/о +32.2 +5.7 19 +30 +30 жарко 1012.2 1011.7
08 22.06 СВ 3 н/о н/о +32.0 +6.2 20 +30 +30 жарко 1012.3 1011.8
09 22.06 СВ 3 н/о н/о +28.9 +6.3 24 +28 +28 жарко 1012.9 1012.4
11 22.06 В 4 н/о н/о +25.6 +8.1 33 +26 +26 жарко 1014.7 1014.2
10 22.06 В 2 н/о н/о +24.9 +6.1 30 +25 +25 комфорт 1013.8 1013.3
12 22.06 В 3 н/о н/о +22.5 +6.7 36 +23 +23 комфорт 1015.3 1014.8
13 22.06 В 3 н/о н/о +22.2 +6.8 37 +23 +23 комфорт 1015.5 1015.0 +33.4
14 22.06 С 2 н/о н/о +19.2 +6.7 44 +21 +21 комфорт 1015.3 1014.8
15 22.06 В 2 н/о н/о +19.6 +8.6 49 +21 +21 комфорт 1015.3 1014.8
17 22.06 В 2 н/о н/о +16.7 +7.4 54 +17 +17 1014.5 1014.0
16 22.06 В 2 н/о н/о +19.1 +8.7 51 +20 +20 1015.1 1014.6
18 22.06 штиль 0 н/о н/о +16.2 +6.6 53 +16 +16 1014.1 1013.6
19 22.06 СЗ 2 н/о н/о +15.8 +7.8 59 +16 +16 1014.0 1013.5
20 22.06 СЗ 2 н/о н/о +16.6 +8.3 58 +17 +17 1013.6 1013.1
21 22.06 З 2 н/о н/о +15.6 +7.4 58 +16 +16 1013.8 1013.3
23 22.06 З 2 н/о н/о +20.6 +10.1 51 +23 +23 комфорт 1015.1 1014.6
22 22.06 С 2 н/о н/о +16.7 +8.4 58 +17 +17 1014.3 1013.8
00 23.06 З 2 н/о н/о +22.7 +9.5 43 +24 +24 комфорт 1015.6 1015.1
01 23.06 ЮЗ 2 н/о н/о +25.8 +10.0 37 +27 +27 жарко 1015.6 1015.1 +15.7
02 23.06 Ю 3 н/о н/о +29.5 +9.1 28 +29 +29 жарко 1015.2 1014.7
03 23.06 В 5 н/о н/о +32.2 +9.1 24 +31 +31 жарко 1014.4 1013.9
05 23.06 В 3 н/о н/о +32.7 +8.2 22 +31 +31 жарко 1012.0 1011.5
04 23.06 В 3 н/о н/о +32.7 +8.2 22 +31 +31 жарко 1013.3 1012.8
06 23.06 СВ 3 н/о н/о +32.5 +7.4 21 +31 +31 жарко 1011.1 1010.6
07 23.06 В 2 н/о н/о +33.4 +8.1 21 +32 +32 жарко 1010.6 1010.1
08 23.06 В 3 н/о н/о +32.7 +8.2 22 +31 +31 жарко 1010.5 1010.0
09 23.06 СВ 3 н/о н/о +28.6 +7.8 27 +28 +28 жарко 1011.1 1010.6
11 23.06 ЮВ 1 н/о н/о +25.5 +10.5 39 +26 +26 жарко 1012.4 1011.9
10 23.06 СВ 3 н/о н/о +25.9 +8.4 33 +26 +26 жарко 1011.6 1011.1
12 23.06 СВ 3 н/о н/о +23.0 +10.4 45 +25 +25 комфорт 1012.8 1012.3
13 23.06 В 4 н/о н/о +22.9 +12.5 52 +26 +26 жарко 1013.1 1012.6 +33.7
14 23.06 В 2 н/о н/о +21.2 +12.3 57 +23 +23 комфорт 1013.2 1012.7
15 23.06 штиль 0 н/о н/о +19.4 +9.9 54 +20 +20 1013.0 1012.5
17 23.06 СВ 1 н/о н/о +18.5 +10.6 60 +20 +20 1012.5 1012.0
16 23.06 штиль 0 н/о н/о +18.6 +10.4 59 +19 +19 1012.8 1012.3
18 23.06 штиль 0 н/о н/о +18.3 +11.4 64 +19 +19 1012.0 1011.5
19 23.06 штиль 0 н/о н/о +17.4 +10.3 63 +17 +17 1011.8 1011.3
20 23.06 СЗ 1 н/о н/о +17.1 +10.5 65 +18 +18 1012.0 1011.5
21 23.06 штиль 0 н/о н/о +18.0 +12.0 68 +18 +18 1012.0 1011.5
23 23.06 ЮЗ 2 н/о н/о +21.3 +11.6 54 +23 +23 комфорт 1013.3 1012.8
22 23.06 СЗ 2 н/о н/о +17.9 +11.9 68 +18 +18 1012.7 1012.2
00 24.06 З 1 н/о н/о +24.6 +12.2 46 +26 +26 жарко 1014.0 1013.5
01 24.06 В 3 н/о н/о +29.7 +12.2 34 +31 +31 жарко 1014.0 1013.5 +16.8
02 24.06 СВ 5 н/о н/о +30.8 +13.1 34 +32 +32 жарко 1013.8 1013.3
03 24.06 СВ 4 н/о н/о +32.3 +13.5 32 +33 +33 жарко 1012.9 1012.4
04 24.06 СВ 5 н/о н/о +33.1 +13.2 30 +34 +34 очень
жарко
1011.7 1011.2

 

Местоположение метеостанции Wyndham Aero (Западная Австралия, Австралия): широта -15.50 долгота 128.15 высота над уровнем моря 4 м.

В архиве по умолчанию представлена погода в Wyndham Aero за последнюю неделю. Архивные данные за месяц целиком и за предыдущие месяцы, начиная с января 2011 года, Вы можете получить, выбрав интересующий диапазон дат из раскрывающегося списка и нажав кнопку "Ввод!".

Внимание! Время в таблицах - всемирное. Для получения местного времени необходимо прибавить поправку, которая в Wyndham Aero равна 8 ч.

Смотрите также архив погоды в соседних городах и на ближайших метеорологических станциях:

Погода в Kununurra (Западная Австралия, Австралия) (68 км)
Погода в Argyle Aero (Западная Австралия, Австралия) (130 км)
Погода в Port Keats Aero (Северная территория, Австралия) (203 км)
Погода в Kalumburu (Западная Австралия, Австралия) (209 км)
Погода в Truscott (Западная Австралия, Австралия) (247 км)
Погода в Troughton Island (Западная Австралия, Австралия) (290 км)
Погода в Manbulloo Csiro (Северная территория, Австралия) (291 км)
Погода в Halls Creek Airport (Западная Австралия, Австралия) (308 км)
Погода в Victoria River Downs (Северная территория, Австралия) (323 км)
Погода в Cape Don Lighthouse (Северная территория, Австралия) (375 км)

Пояснения к столбцам:

Ветер - указаны скорость ветра в м/с - средняя за 10 мин, порывы в срок и между сроками (в фигурных скобках) и направление, откуда дует ветер: С - северный, СВ - северо-восточный, В - восточный, ЮВ - юго-восточный, Ю - южный, ЮЗ - юго-западный, З - западный, СЗ - северо-западный.
Видимость - горизонтальная дальность видимости в метрах или километрах. При видимости от 1 до 10 км при отсутствии осадков обычно наблюдается дымка, при ухудшении видимости до 1 км и менее - туман. В сухую погоду видимость может ухудшаться дымом, пылью или мглою.
Явления - указаны атмосферные явления, наблюдавшиеся в срок или в последний час перед сроком; фигурными скобками обозначены явления, наблюдавшиеся между сроками (за 1-3 часа до срока); квадратными скобками обозначены град или гололедные отложения с указанием их диаметра в мм.
Облачность - указаны через наклонную черту общая и нижняя облачность в баллах и высота нижней границы облаков в метрах; квадратными скобками обозначены формы облаков: Ci - перистые, Cs - перисто-слоистые, Cc - перисто-кучевые, Ac - высококучевые, As - высокослоистые, Sc - слоисто-кучевые, Ns - слоисто-дождевые, Cu - кучевые, Cb - кучево-дождевые. Подробнее классификацию облаков см. в Атласе облаков (PDF).
T - Температура воздуха - температура, измеренная на высоте 2 м над землей.
Td - Температура точки росы - температура, при понижении до которой содержащийся в воздухе водяной пар достигнет насыщения.
f - Относительная влажность воздуха - влажноcть воздуха, измеренная на высоте 2 м над землей.
Te - Эффективная температура - температура, которую ощущает одетый по сезону человек в тени. Характеристика душности погоды. При расчете учитывается влияние влажности воздуха и скорости ветра на теплоощущения человека.
Tes - Эффективная температура на солнце - температура, которую ощущает человек, с поправкой на солнечный нагрев. Характеристика знойности погоды. Зависит от высоты солнца над горизонтом, облачности и скорости ветра. Ночью, в пасмурную погоду, а также при ветре 12 м/с и более поправка равна нулю.
P - Атмосферное давление - приведенное к уровню моря атмосферное давление.
Po - Атмосферное давление - измеренное на уровне метеостанции атмосферное давление.
Tmin - Минимальная температура - минимум температуры воздуха на высоте 2 м над землей.
Tmax - Максимальная температура - максимум температуры воздуха на высоте 2 м над землей.
R - Количество осадков - Количество выпавших осадков за период времени, мм. При наведении курсора мыши на число - период времени, за который выпало указанное количество осадков.
R24 - Количество осадков - Количество выпавших осадков за 24 часа, мм.
S - Снежный покров - Высота снежного покрова, см. При наведении курсора мыши на число - состояние снежного покрова и степень покрытия местности в баллах.